"Pseudo-MPEC" for A10c52D

Created 2019 Feb 19 10:18:04 UT using Find_Orb

Click here for an explanation of pseudo-MPECs

 
 Astrometry: 
     A10c52D  C2019 02 09x+wAstrometry=#i,0/)JiY($;redacted;AvANy6O,\x$%KCWV@T08
     A10c52D  C2019 02 09tt*Mclick#/p67tRXJs,Ic5Vy34hereX8W5IR06O0eVgtMX1!0CLT08
     A10c52D  C2019 02 09O+S+s1D+Fm71]=`H(p5VwmAyWd%nmTne:Gqg2oLYcjy[*forG=7tT08
     A10c52D  C2019 02 09;Qexplanationp0dM3mX4dG3LZO6$(q.P4bAb:%$EO^/:eN'X`;BT08

Station data:
(T08) ATLAS-MLO, Mauna Loa  (N19.535772 W155.576400)  US/Hawaii.

Orbital elements:  A10c52D
   Perihelion 2019 Jan 16.036499 +/- 54.1 TT =  0:52:33 (JD 2458499.536499)
Epoch 2019 Feb 10.0 TT = JDT 2458524.5   Earth MOID: 0.4998   Ma: 0.0273
M   5.60805652 +/- 47               (J2000 ecliptic)          AutoNEOCP
n   0.22465023 +/- 0.271            Peri.  224.44680 +/- 100
a   2.67997942 +/- 2.15             Node   275.13590 +/- 49
e   0.4628811 +/- 0.156             Incl.   16.61413 +/- 7
P   4.39                   H 17.6   G  0.15   U 11.9  SR
q 1.43946744 +/- 0.384    Q 3.92049140 +/- 1.25
From 4 observations 2019 Feb. 9 (38.4 min); mean residual 0".85
Residuals in arcseconds: 
190209 T08  .41+  .55+    190209 T08  1.3-  .86-    
190209 T08  .36-  .67-    190209 T08  1.2+  1.0+    

Ephemerides (geocentric):
Date (UTC) HH   RA              Dec         delta   r     elong  mag " sig PA
---- -- -- --  -------------   -----------  ------ ------ -----  --- ---- ---
2019 02 19 10  11 10 55.136   -36 40 33.37  .63503 1.4776 129.8 18.8  48d 171
2019 02 19 11  11 10 54.067   -36 41 15.33  .63502 1.4777 129.8 18.8  48d 171
2019 02 19 12  11 10 52.995   -36 41 57.21  .63501 1.4778 129.8 18.8  48d 171
2019 02 19 13  11 10 51.920   -36 42 39.00  .63501 1.4779 129.8 18.8  48d 171
2019 02 19 14  11 10 50.842   -36 43 20.70  .63500 1.4780 129.8 18.8  48d 170
2019 02 19 15  11 10 49.761   -36 44 02.32  .63500 1.4781 129.8 18.8  48d 170
2019 02 19 16  11 10 48.677   -36 44 43.86  .63499 1.4782 129.9 18.8  49d 170
2019 02 19 17  11 10 47.591   -36 45 25.31  .63499 1.4783 129.9 18.8  49d 170
2019 02 19 18  11 10 46.501   -36 46 06.67  .63498 1.4784 129.9 18.8  49d 170
2019 02 19 19  11 10 45.409   -36 46 47.95  .63498 1.4785 129.9 18.8  49d 169
2019 02 19 20  11 10 44.313   -36 47 29.14  .63497 1.4786 129.9 18.8  49d 169
2019 02 19 21  11 10 43.215   -36 48 10.25  .63497 1.4786 129.9 18.8  49d 169
2019 02 19 22  11 10 42.114   -36 48 51.27  .63496 1.4787 130.0 18.8  49d 169
2019 02 19 23  11 10 41.011   -36 49 32.20  .63496 1.4788 130.0 18.8  49d 168
2019 02 20 00  11 10 39.904   -36 50 13.05  .63495 1.4789 130.0 18.8  49d 168
2019 02 20 01  11 10 38.795   -36 50 53.81  .63495 1.4790 130.0 18.8  49d 168
2019 02 20 02  11 10 37.682   -36 51 34.49  .63495 1.4791 130.0 18.8  49d 168
2019 02 20 03  11 10 36.567   -36 52 15.08  .63494 1.4792 130.0 18.8  49d 168
2019 02 20 04  11 10 35.449   -36 52 55.58  .63494 1.4793 130.0 18.8  49d 168
2019 02 20 05  11 10 34.329   -36 53 36.00  .63493 1.4794 130.1 18.8  50d 167
2019 02 20 06  11 10 33.205   -36 54 16.33  .63493 1.4795 130.1 18.8  50d 167
2019 02 20 07  11 10 32.079   -36 54 56.58  .63493 1.4796 130.1 18.8  50d 167
2019 02 20 08  11 10 30.950   -36 55 36.74  .63493 1.4797 130.1 18.8  50d 167
2019 02 20 09  11 10 29.818   -36 56 16.81  .63492 1.4798 130.1 18.8  50d 167
2019 02 20 10  11 10 28.683   -36 56 56.79  .63492 1.4798 130.1 18.8  50d 167
2019 02 20 11  11 10 27.546   -36 57 36.69  .63492 1.4799 130.2 18.8  50d 167
2019 02 20 12  11 10 26.406   -36 58 16.51  .63492 1.4800 130.2 18.8  50d 166
2019 02 20 13  11 10 25.263   -36 58 56.23  .63491 1.4801 130.2 18.8  50d 166
2019 02 20 14  11 10 24.117   -36 59 35.88  .63491 1.4802 130.2 18.8  50d 166
2019 02 20 15  11 10 22.968   -37 00 15.43  .63491 1.4803 130.2 18.8  50d 166
2019 02 20 16  11 10 21.817   -37 00 54.90  .63491 1.4804 130.2 18.8  50d 166
2019 02 20 17  11 10 20.663   -37 01 34.28  .63491 1.4805 130.2 18.8  50d 166
2019 02 20 18  11 10 19.507   -37 02 13.57  .63491 1.4806 130.3 18.8  50d 166
2019 02 20 19  11 10 18.347   -37 02 52.78  .63491 1.4807 130.3 18.8  50d 166
2019 02 20 20  11 10 17.185   -37 03 31.90  .63490 1.4808 130.3 18.8  50d 166
2019 02 20 21  11 10 16.020   -37 04 10.93  .63490 1.4809 130.3 18.8  50d 166
2019 02 20 22  11 10 14.853   -37 04 49.88  .63490 1.4810 130.3 18.8  50d 166
2019 02 20 23  11 10 13.683   -37 05 28.74  .63490 1.4811 130.3 18.8  50d 166
2019 02 21 00  11 10 12.510   -37 06 07.51  .63490 1.4812 130.4 18.8  50d 165
2019 02 21 01  11 10 11.334   -37 06 46.20  .63490 1.4813 130.4 18.8  50d 165
2019 02 21 02  11 10 10.156   -37 07 24.80  .63490 1.4813 130.4 18.8  50d 165
2019 02 21 03  11 10 08.975   -37 08 03.31  .63490 1.4814 130.4 18.8  50d 165
2019 02 21 04  11 10 07.791   -37 08 41.73  .63490 1.4815 130.4 18.8  50d 165
2019 02 21 05  11 10 06.605   -37 09 20.07  .63490 1.4816 130.4 18.8  50d 165
2019 02 21 06  11 10 05.416   -37 09 58.32  .63490 1.4817 130.4 18.8  50d 165
2019 02 21 07  11 10 04.225   -37 10 36.49  .63491 1.4818 130.5 18.8  50d 165
2019 02 21 08  11 10 03.030   -37 11 14.56  .63491 1.4819 130.5 18.8  50d 165
2019 02 21 09  11 10 01.834   -37 11 52.55  .63491 1.4820 130.5 18.8  50d 165